Location: Unspecified
(0.0000°N, 0.0000°E)
Time: 03:59:15
(UTC+00:00)

Vanguard 2 - Visible Passes

Search period start: 29 May 2017 00:00
Search period end: 08 June 2017 00:00
Orbit: 554 x 2940 km, 32.9° (Epoch: 27 May)

Date Brightness Start Highest point End Pass type
(mag) Time Alt. Az. Time Alt. Az. Time Alt. Az.
29 May 9.2 03:19:48 34° N 03:19:48 34° N 03:23:01 10° NNE visible
29 May 11.5 18:28:18 10° SW 18:38:43 19° SSW 18:50:04 10° SSE visible
29 May 11.5 20:47:42 10° SSW 20:55:06 16° S 20:55:06 16° S visible
30 May 9.4 03:36:53 27° NNW 03:36:53 27° NNW 03:40:33 10° NNE visible
30 May 11.5 18:49:17 10° SW 18:58:54 17° S 19:09:00 10° SSE visible
30 May 11.5 21:06:45 10° SSW 21:12:07 16° S 21:12:07 16° S visible
31 May 9.8 03:53:54 18° NW 03:53:54 18° NW 03:57:34 10° N visible
31 May 11.4 19:09:58 10° SW 19:19:14 16° S 19:27:44 11° SSE visible
31 May 11.6 21:25:16 10° SSW 21:29:10 16° SSW 21:29:10 16° SSW visible
01 Jun 10.6 02:09:28 14° NE 02:09:28 14° NE 02:10:12 10° NE visible
01 Jun 10.3 04:10:53 10° NW 04:11:44 10° NW 04:12:46 10° NNW visible
01 Jun 11.4 19:29:58 10° SSW 19:39:36 16° S 19:44:48 14° SSE visible
01 Jun 11.6 21:43:29 10° SSW 21:46:14 15° SSW 21:46:14 15° SSW visible
02 Jun 10.4 02:26:24 19° NNE 02:26:24 19° NNE 02:27:58 10° NNE visible
02 Jun 11.3 19:49:11 10° SSW 19:59:52 18° S 20:01:55 18° SSE visible
02 Jun 11.7 22:01:34 10° SW 22:03:21 13° SSW 22:03:21 13° SSW visible
03 Jun 10.3 02:43:17 19° N 02:43:17 19° N 02:45:28 10° NNE visible
03 Jun 11.2 20:07:49 10° SSW 20:19:05 21° SSE 20:19:05 21° SSE visible
03 Jun 11.8 22:19:39 10° SW 22:20:31 12° SW 22:20:31 12° SW visible
04 Jun 10.4 03:00:06 17° NNW 03:00:06 17° NNW 03:02:34 10° N visible
04 Jun 11.5 18:13:34 10° SSW 18:21:53 15° S 18:30:50 10° SE visible
04 Jun 11.1 20:26:06 10° SSW 20:36:19 24° S 20:36:19 24° S visible
05 Jun 10.6 03:16:53 12° NNW 03:16:53 12° NNW 03:18:43 10° NNW visible
05 Jun 11.4 18:32:50 10° SSW 18:42:10 17° SSE 18:52:00 10° SE visible
05 Jun 11.1 20:44:11 10° SSW 20:53:40 27° S 20:53:40 27° S visible
06 Jun 11.0 01:32:11 12° NNE 01:32:11 12° NNE 01:32:41 10° NNE visible
06 Jun 11.2 18:51:27 10° SSW 19:02:15 19° SSE 19:09:39 15° SE visible
06 Jun 11.0 21:02:14 10° SW 21:11:07 30° SSW 21:11:07 30° SSW visible
07 Jun 10.8 01:48:49 15° NNE 01:48:49 15° NNE 01:50:12 10° NNE visible
07 Jun 11.0 19:09:40 10° SSW 19:22:05 23° SSE 19:27:14 21° SE visible
07 Jun 11.0 21:20:18 10° SW 21:28:42 32° SSW 21:28:42 32° SSW visible
